Showing default

YAOGAN-30 W, 46809

Orbit data source: Space-Track

YAOGAN-30 W, 46809 is a payload satellite owned by PLA SSF (CN) in LEO that was launched on Mon, 26 Oct 2020 UTC via a CHANG ZHENG 2C launch vehicle from the Xichang Space Center, China (XSC). Payload-class satellites include a variety of spacecraft equipped with specific instruments for various scientific and technological missions. These include communications satellites like Starlink; space stations such as the ISS; scientific satellites like the Hubble; Earth observation satellites from companies like Planet Labs, Umbra, and HawkEye 360; GPS; miniature CubeSats for education and research; and military/defense satellites.

Loading next visibility...
Identifier
46809, 2020-076C
Orbit
LEO
Country
Flag of CNCN / PRC
Related business
Manufacturer
SECM
Mission
Operational Defense Sigint
Bus & Motor
Unknown
Mass
~500 kg wet, ~500 kg dry
Launch date (UTC)
2020-10-26 (6 years ago)
Launch vehicle
CHANG ZHENG 2C
Launch site
Xichang Space Center, China (XSC)
Object type
Payload
Rocket body
Debris
Shape & HBR
Box + 2 Pan, 0.5 m
Radar Cross Section
0.446 m², Large (>1 m²)

Expand to show TLE details & history
Last TLE update: 1 day ago

TLE from 1 day ago
0 YAOGAN-30 W
1 46809U 20076C   26172.38907991  .00002131  00000-0  15859-3 0  9994
2 46809  34.9965  65.2680 0005270 107.4651 252.6633 15.02697217308772
Epoch: 2026-06-21T09:20Z
TLE epoch observation values (Epoch: 2026-06-21T09:20:16.504Z)
Latitude
-0.00004°
Longitude
15.60912°
Altitude
558.591 km
Speed
7.584 km/s
True Right ascension
04h 21m 04s
True Declination
0° 00' 00"
Sunlit
Object was in daylight at epoch
Visualization orbit readout
Latitude
Unknown
Longitude
Unknown
Altitude
Unknown
Speed
Unknown
Apparent Right ascension
Unknown
Apparent Declination
Unknown
Sunlit
N/A
Visualization observer readout
Local Sidereal Time
21:35:03
Azimuth
Unknown
Elevation
Unknown
Doppler factor
Unknown
Orbital elements
Apogee altitude
565.463 km
Perigee altitude
558.148 km
Semi-major axis
6,939.942 km
Eccentricity
0.00053
Inclination
34.9965°
RAAN
65.268°
Arg. of periapsis
107.4651°
True anomaly
252.60567°
Mean anomaly
252.6633°
Eccentric anomaly
252.63448°
Mean motion
3.75413 °/min
Orbital period
95.89 mins
BSTAR
0.00015859
Loading maneuver chart data...
Computing Atmospheric mass density...
Loading historical data...
Loading historical data...
Loading historical data...
Loading historical data...
Loading historical data...
Loading historical data...
Loading historical data...
Other satellites on launch #76 in the year 2020 (2020-10-26 UTC)

Documentation

Showing up to 5 results
|